DELTA 1 DEB, 12536

Orbit data source: Space-Track

DELTA 1 DEB, 12536 is space debris in LEO originally from a launch on Thu, 29 Jul 1976 UTC launched from the Air Force Western Test Range (AFWTR). Debris objects in space refer to the collection of defunct objects orbiting the Earth. Examples of debris include non-operational satellites, rocket bodies, and fragments generated from explosions, collisions, or faulty payload assembly.

Loading next visibility...
Identifier
12536, 1976-077DR
Orbit
LEO
Country
Flag of USUS
Related business
Manufacturer
Unknown
Mission
Spacecraft
Bus & Motor
Unknown
Mass
Unknown
Launch date (UTC)
1976-07-29 (50 years ago)
Launch vehicle
Unknown
Launch site
Air Force Western Test Range (AFWTR)
Object type
Payload
Rocket body
Debris
Shape & HBR
Unknown shape, 0.1 m
Radar Cross Section
Medium (>0.1 m² and <1 m²)

Expand to show TLE details & history
Last TLE update: 1 day ago

TLE from 1 day ago
0 DELTA 1 DEB
1 12536U 76077DR  26170.76328507  .00004170  00000-0  44370-1 0  9999
2 12536 101.7553 262.2546 0546917 204.2544 312.8312 11.80163111 54171
Epoch: 2026-06-19T18:19Z
TLE epoch observation values (Epoch: 2026-06-19T18:19:07.830Z)
Latitude
27.1367°
Longitude
-94.42331°
Altitude
1,484.696 km
Speed
7.249 km/s
True Right ascension
05h 53m 23s
True Declination
27° 00' 37"
Sunlit
Object was in daylight at epoch
Visualization orbit readout
Latitude
Unknown
Longitude
Unknown
Altitude
Unknown
Speed
Unknown
Apparent Right ascension
Unknown
Apparent Declination
Unknown
Sunlit
N/A
Visualization observer readout
Local Sidereal Time
06:21:18
Azimuth
Unknown
Elevation
Unknown
Doppler factor
Unknown
Orbital elements
Apogee altitude
2,214.101 km
Perigee altitude
1,322.989 km
Semi-major axis
8,146.682 km
Eccentricity
0.05469
Inclination
101.7553°
RAAN
262.2546°
Arg. of periapsis
204.2544°
True anomaly
308.01722°
Mean anomaly
312.8312°
Eccentric anomaly
310.44649°
Mean motion
2.9517 °/min
Orbital period
121.96 mins
BSTAR
0.04437
Loading maneuver chart data...
Computing Atmospheric mass density...
Loading historical data...
Loading historical data...
Loading historical data...
Loading historical data...
Loading historical data...
Loading historical data...
Loading historical data...

Documentation

Showing up to 5 results
|